CZ-6A DEB, 60693

Orbit data source: Space-Track

CZ-6A DEB, 60693 is space debris in LEO originally from a launch on Tue, 06 Aug 2024 UTC launched from the Taiyaun Space Center, China (TSC). Debris objects in space refer to the collection of defunct objects orbiting the Earth. Examples of debris include non-operational satellites, rocket bodies, and fragments generated from explosions, collisions, or faulty payload assembly.

Loading next visibility...
Identifier
60693, 2024-140CW
Orbit
LEO
Country
Flag of CNCN / PRC
Related business
Manufacturer
SAST
Mission
Spacecraft
Bus & Motor
Unknown
Mass
Unknown
Launch date (UTC)
2024-08-06 (1 year ago)
Launch vehicle
Unknown
Launch site
Taiyaun Space Center, China (TSC)
Object type
Payload
Rocket body
Debris
Shape & HBR
Unknown shape, 0.2 m
Radar Cross Section
Small (<0.1 m²)

Expand to show TLE details & history
Last TLE update: 5 hours ago

TLE from 5 hours ago
0 CZ-6A DEB
1 60693U 24140CW  25351.29426184  .00000393  00000-0  20358-3 0  9993
2 60693  89.0172 296.9567 0085609  73.0818 287.9730 14.11038968 69723
Epoch: 2025-12-17T07:03Z
TLE epoch observation values (Epoch: 2025-12-17T07:03:44.222Z)
Latitude
-0.00011°
Longitude
104.85625°
Altitude
840.227 km
Speed
7.442 km/s
True Right ascension
19h 47m 49s
True Declination
0° 00' 00"
Sunlit
Object was in daylight at epoch
Visualization orbit readout
Latitude
Unknown
Longitude
Unknown
Altitude
Unknown
Speed
Unknown
Apparent Right ascension
Unknown
Apparent Declination
Unknown
Sunlit
N/A
Visualization observer readout
Local Sidereal Time
11:05:40
Azimuth
Unknown
Elevation
Unknown
Doppler factor
Unknown
Orbital elements
Apogee altitude
914.685 km
Perigee altitude
790.879 km
Semi-major axis
7,230.919 km
Eccentricity
0.00856
Inclination
89.0172°
RAAN
296.9567°
Arg. of periapsis
73.0818°
True anomaly
287.03681°
Mean anomaly
287.973°
Eccentric anomaly
287.50521°
Mean motion
3.52982 °/min
Orbital period
101.99 mins
BSTAR
0.00020358
Loading maneuver chart data...
Computing Atmospheric mass density...
Loading historical data...
Loading historical data...
Loading historical data...
Loading historical data...
Loading historical data...
Loading historical data...
Loading historical data...

Documentation

Showing up to 5 results
|